This is the latest recevied weather packets stored in our database for station/object HB9GPU-10. If no packets are shown the sender has not sent any weather packets the latest 10 day(s).
| Time | Temp. | Humidity | Pressure | Rain* | Wind** | Luminosity | Snow |
|---|---|---|---|---|---|---|---|
| 1778189166 | 26.11° C | 22% | 1020 hPa | - | - | - | - |
| 1778189162 | 26.11° C | 22% | 1020 hPa | - | - | - | - |
| 1778188266 | 25° C | 24% | 1020 hPa | - | - | - | - |
| 1778188262 | 25° C | 24% | 1020 hPa | - | - | - | - |
| 1778187366 | 25° C | 24% | 1020 hPa | - | - | - | - |
| 1778187361 | 25° C | 24% | 1020 hPa | - | - | - | - |
| 1778186465 | 25° C | 24% | 1019.8 hPa | - | - | - | - |
| 1778186461 | 25° C | 24% | 1019.8 hPa | - | - | - | - |
| 1778185565 | 25.56° C | 23% | 1019.7 hPa | - | - | - | - |
| 1778185561 | 25.56° C | 23% | 1019.7 hPa | - | - | - | - |
| 1778184665 | 25.56° C | 23% | 1019.7 hPa | - | - | - | - |
| 1778184661 | 25.56° C | 23% | 1019.7 hPa | - | - | - | - |
| 1778183765 | 25° C | 23% | 1019.6 hPa | - | - | - | - |
| 1778183761 | 25° C | 23% | 1019.6 hPa | - | - | - | - |
| 1778182865 | 25.56° C | 24% | 1019.6 hPa | - | - | - | - |
| 1778182860 | 25.56° C | 24% | 1019.6 hPa | - | - | - | - |
| 1778181965 | 26.11° C | 22% | 1019.4 hPa | - | - | - | - |
| 1778181960 | 26.11° C | 22% | 1019.4 hPa | - | - | - | - |
| 1778181064 | 25.56° C | 23% | 1019.1 hPa | - | - | - | - |
| 1778181060 | 25.56° C | 23% | 1019.1 hPa | - | - | - | - |
| 1778180164 | 25.56° C | 23% | 1019.2 hPa | - | - | - | - |
| 1778180160 | 25.56° C | 23% | 1019.2 hPa | - | - | - | - |
| 1778179264 | 25.56° C | 24% | 1019 hPa | - | - | - | - |
| 1778179260 | 25.56° C | 24% | 1019 hPa | - | - | - | - |
| 1778178364 | 26.11° C | 23% | 1018.9 hPa | - | - | - | - |
* Rain since midnight (hover to see other rain measurements)
** Current wind speed in m/s (hover to see current wind gust speed)